Weather in Juigalpa

Nicaragua     12°06′07″N   85°22′12″W
temp.,
°C
wind,
m/s
gust,
m/s
humid.,
%
clouds,
%
prec.,
mm/h
press.,
hPa
HPBL,
m
1 march, mon
mon100:00+21ne5139242 0.0 1012612
03:00+21ne6148675 0.0 1010579
06:00+22ne7158487 0.0 1012654
09:00+28ene9135566 0.0 10131425
12:00+33ene9113734 0.0 10111994
15:00+32ene911390 0.0 10082078
18:00+26ene712643 0.0 1010895
21:00+23ne614820 0.0 1012689
2 march, tue
tue200:00+22ne714860 0.0 1013651
03:00+21ne5139019 0.0 1011542
06:00+22ne6138727 0.0 1012571
09:00+28ene9125743 0.0 10141271
12:00+33ene9123745 0.0 10122001
15:00+32ene10114388 0.0 10091899
18:00+25ene6116789 0.0 1011984
21:00+21ene4128473 0.0 1013468
3 march, wed
wed300:00+20ne3119286 0.0 1013342
03:00+20ne389356 0.0 1012199
06:00+20ne4119458 0.0 1014378
09:00+28ene7105356 0.0 10151341
12:00+32ene8103347 0.1 10131872
15:00+33ene811270 0.0 10101963
18:00+26ene410470 0.0 1011289
21:00+22ene411800 0.0 1014331
4 march, thu
thu400:00+21ne310930 0.0 1014312
03:00+20ne36950 0.0 1014146
06:00+20ne37954 0.0 1014246
09:00+28ne7105316 0.0 10161229
12:00+33ene810348 0.0 10131948
15:00+32ene89380 0.0 10102049
18:00+27ene410520 0.0 1011354
21:00+21ene39770 0.0 1014227
5 march, fri
fri500:00+19ne36890 0.0 1013138
03:00+18ne36920 0.0 1012172
06:00+18ne38930 0.0 1013194
09:00+27ne79470 0.0 1015966
12:00+34ene78260 0.0 10121716
15:00+33ene77270 0.0 10081785
18:00+26ene35480 0.0 1010101
21:00+21ene49740 0.0 1012225